User: anonymous   Login
Location: Unspecified
(0.0000°N, 0.0000°E)
Time: 02:53:49
(UTC+00:00)
Language:

Kosmos-1464 - Orbit

View from above orbital plane
View from above orbital plane
View from above satellite
View from above satellite

Ground track
Ground track

The orbit data is extracted from the following two-line orbital elements,

1 14084U 83048A   18171.57837892 +.00000026 +00000-0 +11815-4 0  9995
2 14084 082.9448 204.7585 0028732 244.2312 270.6841 13.74443497758997
Epoch (UTC): 20 June 2018 13:52:51
Eccentricity: 0.0028732
inclination: 82.9448°
perigee height: 962 km
apogee height: 1005 km
right ascension of ascending node: 204.7585°
argument of perigee: 244.2312°
revolutions per day: 13.74443497
mean anomaly at epoch: 270.6841°
orbit number at epoch: 75899

The dashed part of the orbit path shows where the satellite is in the earth's shadow,  

DLR